Weather History for Buckhannon, WV

Change the Weather History Date:

Sunday, June 30, 2013

  Actual Average (KEKN) Record (KEKN)
Temperature  
Mean Temperature 72 °F 69 °F  
Max Temperature 84 °F 81 °F 92 °F (1969)
Min Temperature 60 °F 58 °F 37 °F (1988)
Degree Days  
Heating Degree Days 0 1  
Month to date heating degree days 56  
Since 1 June heating degree days 55  
Since 1 July heating degree days 5852  
Cooling Degree Days 7 5  
Month to date cooling degree days 92  
Year to date cooling degree days 115  
Since 1 June cooling degree days 92  
Growing Degree Days 22 (Base 50)    
Moisture  
Dew Point 64 °F    
Average Humidity 77    
Maximum Humidity 100    
Minimum Humidity 42    
Precipitation  
Precipitation 0.00 in 0.16 in 1.79 in (1936)
Month to date precipitation 4.40  
Year to date precipitation 23.61  
Snow  
Snow 0.00 in - - ()
Month to date snowfall  
Since 1 September snowfall  
Snow Depth -    
Sea Level Pressure  
Sea Level Pressure 29.81 in    
Wind  
Wind Speed 3 mph (SSW)    
Max Wind Speed 9 mph    
Max Gust Speed -    
Visibility 9 miles    
Events Fog , Rain    
T = Trace of Precipitation, MM = Missing Value Source: NWS Daily Summary

Daily Weather History Graph

Daily Weather History Graph

Search for Another Location

Airport:

Trip Planner

Search our weather history database for the weather conditions in past years. The results will help you decide how hot, cold, wet, or windy it might be!

Date:

Astronomy

Jun. 30, 2013 Rise Set
Actual Time 5:58 AM EDT 8:50 PM EDT
Civil Twilight 5:26 AM EDT 9:22 PM EDT
Nautical Twilight 4:46 AM EDT 10:02 PM EDT
Astronomical Twilight 4:00 AM EDT 10:49 PM EDT
Moon 12:54 AM EDT (6/30) 2:06 PM EDT (6/30)
Length of Visible Light 15h 55m
Length of Day
14h 51m
Last Quarter, 45% of the Moon is Illuminated
Jun 30
Last Quarter
Jul 8
New
Jul 15
First Quarter
Jul 22
Full
Jul 29
Last Quarter

Hourly Weather History & Observations

Time (EDT) Temp. Heat Index Dew Point Humidity Pressure Visibility Wind Dir Wind Speed Gust Speed Precip Events Conditions
12:15 AM 64.4 °F - 64.4 °F 100% 29.76 in 7.0 mi SE 5.8 mph - N/A   Mostly Cloudy
12:35 AM 64.4 °F - 64.4 °F 100% 29.77 in 10.0 mi ESE 4.6 mph - N/A   Scattered Clouds
12:55 AM 64.4 °F - 64.4 °F 100% 29.77 in 10.0 mi SSE 5.8 mph - N/A   Partly Cloudy
1:15 AM 64.4 °F - 64.4 °F 100% 29.77 in 10.0 mi Calm Calm - N/A   Scattered Clouds
1:35 AM 64.4 °F - 64.4 °F 100% 29.77 in 10.0 mi SE 4.6 mph - N/A   Partly Cloudy
1:55 AM 64.4 °F - 64.4 °F 100% 29.76 in 9.0 mi Calm Calm - N/A   Clear
2:15 AM 64.4 °F - 64.4 °F 100% 29.75 in 10.0 mi Calm Calm - N/A   Clear
2:35 AM 64.4 °F - 64.4 °F 100% 29.75 in 5.0 mi Calm Calm - N/A   Clear
2:55 AM 64.4 °F - 64.4 °F 100% 29.76 in 10.0 mi Calm Calm - N/A   Clear
3:15 AM 62.6 °F - 62.6 °F 100% 29.75 in 1.5 mi SSE 5.8 mph - N/A   Clear
3:35 AM 62.6 °F - 62.6 °F 100% 29.75 in 10.0 mi Calm Calm - N/A   Clear
3:55 AM 62.6 °F - 62.6 °F 100% 29.75 in 10.0 mi Calm Calm - N/A   Clear
4:15 AM 62.6 °F - 62.6 °F 100% 29.75 in 10.0 mi Calm Calm - N/A   Clear
4:35 AM 62.6 °F - 62.6 °F 100% 29.75 in 10.0 mi Calm Calm - N/A   Clear
4:55 AM 62.6 °F - 62.6 °F 100% 29.76 in 10.0 mi Calm Calm - N/A   Clear
5:15 AM 62.6 °F - 62.6 °F 100% 29.77 in 9.0 mi Calm Calm - N/A   Clear
5:35 AM 62.6 °F - 62.6 °F 100% 29.77 in 10.0 mi Calm Calm - N/A   Clear
5:55 AM 62.6 °F - 62.6 °F 100% 29.77 in 10.0 mi Calm Calm - N/A   Clear
6:15 AM 62.6 °F - 62.6 °F 100% 29.78 in 10.0 mi Calm Calm - N/A   Clear
6:35 AM 60.8 °F - 60.8 °F 100% 29.78 in 0.2 mi Calm Calm - N/A Fog Fog
6:55 AM 60.8 °F - 60.8 °F 100% 29.79 in 1.0 mi Calm Calm - N/A   Clear
7:15 AM 60.8 °F - 60.8 °F 100% 29.79 in 8.0 mi ESE 4.6 mph - N/A   Clear
7:35 AM 60.8 °F - 60.8 °F 100% 29.80 in 7.0 mi Calm Calm - N/A   Clear
7:55 AM 62.6 °F - 62.6 °F 100% 29.80 in 8.0 mi Calm Calm - N/A   Clear
8:15 AM 64.4 °F - 64.4 °F 100% 29.80 in 10.0 mi Calm Calm - N/A   Clear
8:35 AM 66.2 °F - 66.2 °F 100% 29.81 in 10.0 mi Calm Calm - N/A   Clear
8:55 AM 69.8 °F - 66.2 °F 88% 29.81 in 10.0 mi Calm Calm - N/A   Clear
9:15 AM 71.6 °F - 64.4 °F 78% 29.82 in 10.0 mi Calm Calm - N/A   Clear
9:35 AM 71.6 °F - 64.4 °F 78% 29.82 in 10.0 mi Calm Calm - N/A   Clear
9:55 AM 73.4 °F - 66.2 °F 78% 29.82 in 10.0 mi SSW 4.6 mph - N/A   Clear
10:15 AM 75.2 °F - 64.4 °F 69% 29.82 in 10.0 mi SSW 4.6 mph - N/A   Clear
10:35 AM 75.2 °F - 64.4 °F 69% 29.82 in 10.0 mi SW 6.9 mph - N/A   Clear
10:55 AM 77.0 °F - 64.4 °F 65% 29.82 in 10.0 mi SW 5.8 mph - N/A   Clear
11:15 AM 78.8 °F - 66.2 °F 65% 29.82 in 10.0 mi SW 5.8 mph - N/A   Clear
11:35 AM 78.8 °F - 64.4 °F 61% 29.82 in 10.0 mi South 8.1 mph - N/A   Clear
11:55 AM 78.8 °F - 62.6 °F 57% 29.82 in 10.0 mi SSW 9.2 mph - N/A   Clear
12:15 PM 80.6 °F 81.8 °F 62.6 °F 54% 29.82 in 10.0 mi SW 8.1 mph - N/A   Clear
12:35 PM 80.6 °F 82.3 °F 64.4 °F 58% 29.82 in 10.0 mi WSW 9.2 mph - N/A   Clear
12:55 PM 80.6 °F 81.8 °F 62.6 °F 54% 29.82 in 10.0 mi SW 5.8 mph - N/A   Clear
1:15 PM 80.6 °F 81.5 °F 60.8 °F 51% 29.82 in 10.0 mi SSW 6.9 mph - N/A   Clear
1:35 PM 82.4 °F 82.9 °F 60.8 °F 48% 29.82 in 10.0 mi South 5.8 mph - N/A   Clear
1:55 PM 82.4 °F 83.4 °F 62.6 °F 51% 29.82 in 10.0 mi SW 5.8 mph - N/A   Clear
2:15 PM 82.4 °F 83.4 °F 62.6 °F 51% 29.81 in 10.0 mi SSW 8.1 mph - N/A   Partly Cloudy
2:35 PM 82.4 °F 82.9 °F 60.8 °F 48% 29.81 in 10.0 mi SSW 9.2 mph - N/A   Partly Cloudy
2:55 PM 82.4 °F 82.9 °F 60.8 °F 48% 29.80 in 10.0 mi West 3.5 mph - N/A   Partly Cloudy
3:15 PM 82.4 °F 82.9 °F 60.8 °F 48% 29.80 in 10.0 mi West 6.9 mph - N/A   Clear
3:35 PM 82.4 °F 82.5 °F 59.0 °F 45% 29.80 in 10.0 mi SSW 9.2 mph - N/A   Clear
3:55 PM 82.4 °F 82.9 °F 60.8 °F 48% 29.80 in 10.0 mi WSW 5.8 mph - N/A   Clear
4:15 PM 84.2 °F 84.4 °F 60.8 °F 45% 29.80 in 10.0 mi SW 6.9 mph - N/A   Clear
4:35 PM 82.4 °F 82.9 °F 60.8 °F 48% 29.81 in 10.0 mi Calm Calm - N/A   Clear
4:55 PM 82.4 °F 82.9 °F 60.8 °F 48% 29.80 in 10.0 mi Calm Calm - N/A   Clear
5:15 PM 82.4 °F 82.0 °F 57.2 °F 42% 29.80 in 10.0 mi Calm Calm - N/A   Clear
5:35 PM 82.4 °F 82.5 °F 59.0 °F 45% 29.81 in 10.0 mi Calm Calm - N/A   Clear
5:55 PM 80.6 °F 81.8 °F 62.6 °F 54% 29.81 in 10.0 mi NNW 5.8 mph - N/A   Clear
6:15 PM 80.6 °F 82.3 °F 64.4 °F 58% 29.81 in 10.0 mi Calm Calm - N/A   Clear
6:35 PM 80.6 °F 82.3 °F 64.4 °F 58% 29.81 in 10.0 mi North 6.9 mph - N/A   Clear
6:55 PM 80.6 °F 82.3 °F 64.4 °F 58% 29.82 in 10.0 mi Calm Calm - N/A   Clear
7:15 PM 78.8 °F - 64.4 °F 61% 29.82 in 10.0 mi Calm Calm - N/A   Clear
7:35 PM 78.8 °F - 66.2 °F 65% 29.83 in 10.0 mi Calm Calm - N/A   Clear
7:55 PM 77.0 °F - 66.2 °F 69% 29.83 in 10.0 mi Calm Calm - N/A   Clear
8:15 PM 75.2 °F - 68.0 °F 78% 29.83 in 10.0 mi North 5.8 mph - N/A   Partly Cloudy
8:35 PM 75.2 °F - 66.2 °F 73% 29.84 in 10.0 mi Calm Calm - N/A   Partly Cloudy
8:55 PM 73.4 °F - 66.2 °F 78% 29.84 in 10.0 mi Calm Calm - N/A   Partly Cloudy
9:15 PM 73.4 °F - 69.8 °F 88% 29.85 in 10.0 mi Calm Calm - N/A   Clear
9:35 PM 73.4 °F - 64.4 °F 73% 29.85 in 10.0 mi Calm Calm - N/A   Clear
9:55 PM 73.4 °F - 64.4 °F 73% 29.86 in 10.0 mi Calm Calm - N/A   Partly Cloudy
10:15 PM 71.6 °F - 69.8 °F 94% 29.86 in 10.0 mi Calm Calm - N/A   Scattered Clouds
10:35 PM 71.6 °F - 66.2 °F 83% 29.86 in 10.0 mi Calm Calm - N/A   Partly Cloudy
10:55 PM 73.4 °F - 64.4 °F 73% 29.87 in 10.0 mi Calm Calm - N/A   Partly Cloudy
11:15 PM 73.4 °F - 66.2 °F 78% 29.87 in 10.0 mi Calm Calm - N/A   Scattered Clouds
11:35 PM 73.4 °F - 66.2 °F 78% 29.86 in 10.0 mi Calm Calm - N/A   Partly Cloudy
11:55 PM 71.6 °F - 69.8 °F 94% 29.88 in 10.0 mi South 8.1 mph - N/A Rain Light Rain